Weather History for KDFI - August, 2013

Change the Weather History Date:

Wednesday, August 14, 2013

  Actual Average Record
Temperature  
Mean Temperature 60 °F -  
Max Temperature 72 °F 82 °F 97 °F (1944)
Min Temperature 48 °F 58 °F 38 °F (1964)
Degree Days  
Heating Degree Days 6    
Growing Degree Days 10 (Base 50)    
Moisture  
Dew Point 47 °F    
Average Humidity 66    
Maximum Humidity 86    
Minimum Humidity 41    
Precipitation  
Precipitation 0.00 in - - ()
Sea Level Pressure  
Sea Level Pressure 30.16 in    
Wind  
Wind Speed 5 mph (North)    
Max Wind Speed 10 mph    
Max Gust Speed -    
Visibility 10 miles    
Events      
Averages and records for this station are not official NWS values.
T = Trace of Precipitation, MM = Missing Value Source: NWS Daily Summary

Daily Weather History Graph

Daily Weather History Graph

Search for Another Location

Airport or City:

Trip Planner

Search our weather history database for the weather conditions in past years. The results will help you decide how hot, cold, wet, or windy it might be!

Date:

Astronomy

Aug. 14, 2013 Rise Set
Actual Time 6:46 AM EDT 8:37 PM EDT
Civil Twilight 6:16 AM EDT 9:07 PM EDT
Nautical Twilight 5:39 AM EDT 9:43 PM EDT
Astronomical Twilight 5:00 AM EDT 10:22 PM EDT
Moon 2:49 PM EDT (8/14) 12:08 AM EDT (8/14)
Length of Visible Light 14h 51m
Length of Day
13h 51m
First Quarter, 52% of the Moon is Illuminated
Aug 14
First Quarter
Aug 20
Full
Aug 28
Last Quarter
Sep 5
New
Sep 12
First Quarter

Hourly Weather History & Observations

Time (EDT) Temp. Dew Point Humidity Pressure Visibility Wind Dir Wind Speed Gust Speed Precip Events Conditions
12:53 AM 55.0 °F 48.0 °F 77% 30.10 in 10.0 mi NNW 6.9 mph - N/A   Clear
1:53 AM 52.0 °F 48.0 °F 86% 30.10 in 10.0 mi NNW 3.5 mph - N/A   Clear
2:53 AM 52.0 °F 46.9 °F 83% 30.11 in 10.0 mi NNW 3.5 mph - N/A   Clear
3:53 AM 52.0 °F 46.9 °F 83% 30.11 in 10.0 mi Calm Calm - N/A   Clear
4:53 AM 50.0 °F 46.0 °F 86% 30.12 in 10.0 mi Calm Calm - N/A   Clear
5:53 AM 48.0 °F 44.1 °F 86% 30.14 in 10.0 mi Calm Calm - N/A   Clear
6:53 AM 48.0 °F 44.1 °F 86% 30.16 in 10.0 mi Calm Calm - N/A   Clear
7:53 AM 51.1 °F 46.0 °F 83% 30.17 in 10.0 mi NW 4.6 mph - N/A   Clear
8:53 AM 55.0 °F 46.9 °F 74% 30.18 in 10.0 mi NNW 9.2 mph - N/A   Clear
9:53 AM 60.1 °F 48.9 °F 67% 30.19 in 10.0 mi North 10.4 mph - N/A   Clear
10:53 AM 63.0 °F 46.9 °F 56% 30.19 in 10.0 mi North 10.4 mph - N/A   Clear
11:53 AM 66.0 °F 46.9 °F 50% 30.20 in 10.0 mi NNE 8.1 mph - N/A   Partly Cloudy
12:53 PM 66.9 °F 46.0 °F 47% 30.19 in 10.0 mi North 10.4 mph - N/A   Scattered Clouds
1:53 PM 68.0 °F 46.9 °F 47% 30.18 in 10.0 mi North 10.4 mph - N/A   Mostly Cloudy
2:53 PM 70.0 °F 46.9 °F 44% 30.17 in 10.0 mi North 8.1 mph - N/A   Scattered Clouds
3:53 PM 71.1 °F 46.9 °F 42% 30.17 in 10.0 mi Variable 4.6 mph - N/A   Partly Cloudy
4:53 PM 71.1 °F 46.9 °F 42% 30.16 in 10.0 mi North 9.2 mph - N/A   Mostly Cloudy
5:53 PM 71.1 °F 46.0 °F 41% 30.16 in 10.0 mi North 3.5 mph - N/A   Partly Cloudy
6:53 PM 68.0 °F 46.9 °F 47% 30.16 in 10.0 mi East 3.5 mph - N/A   Overcast
7:53 PM 68.0 °F 46.0 °F 45% 30.15 in 10.0 mi Calm Calm - N/A   Clear
8:53 PM 62.1 °F 52.0 °F 70% 30.16 in 10.0 mi Calm Calm - N/A   Clear
9:53 PM 57.0 °F 50.0 °F 77% 30.17 in 10.0 mi Calm Calm - N/A   Clear
10:53 PM 55.9 °F 50.0 °F 80% 30.18 in 10.0 mi Calm Calm - N/A   Partly Cloudy
11:53 PM 54.0 °F 50.0 °F 86% 30.18 in 10.0 mi Calm Calm - N/A   Scattered Clouds